Location: Muck Cross
(36.7179°N, 78.3678°W)
Time: 09:06:31
(UTC+00:00)

Explorer 7 - All Passes

Search period start: 29 March 2023 00:00
Search period end: 08 April 2023 00:00
Orbit: 478 x 657 km, 50.3° (Epoch: 28 March)

Date Brightness Start Highest point End Pass type
(mag) Time Alt. Az. Time Alt. Az. Time Alt. Az.
29 Mar - 01:36:31 10° NNW 01:39:54 23° NNE 01:43:08 10° ENE visible
29 Mar - 03:16:26 10° WNW 03:20:25 65° SW 03:24:11 10° SE visible
29 Mar - 18:51:50 10° SSW 18:56:00 31° SE 19:00:04 10° ENE daylight
29 Mar - 20:31:42 10° WSW 20:36:11 45° NNW 20:40:29 10° NE daylight
29 Mar - 22:14:24 10° NW 22:17:16 16° NNW 22:20:02 10° NNE daylight
29 Mar - 23:56:40 10° NNW 23:58:56 14° N 00:01:08 10° NE visible
30 Mar - 01:36:30 10° NW 01:40:13 31° NNE 01:43:46 10° E visible
30 Mar - 03:16:42 10° WNW 03:20:28 39° SW 03:24:03 10° SSE visible
30 Mar - 18:51:29 10° SSW 18:56:02 48° SE 19:00:27 10° ENE daylight
30 Mar - 20:32:10 10° W 20:36:24 33° NNW 20:40:30 10° NE daylight
30 Mar - 22:15:10 10° NW 22:17:42 15° N 22:20:10 10° NNE daylight
30 Mar - 23:56:45 10° NNW 23:59:22 15° NNE 00:01:54 10° NE visible
31 Mar - 01:36:28 10° NW 01:40:28 43° NNE 01:44:15 10° ESE visible
31 Mar - 03:17:10 10° WNW 03:20:27 24° SW 03:23:36 10° S visible
31 Mar - 17:15:10 10° SE 17:16:24 11° SE 17:17:36 10° ESE daylight
31 Mar - 18:51:21 10° SW 18:56:05 74° SE 19:00:40 10° NE daylight
31 Mar - 20:32:45 10° W 20:36:41 26° NNW 20:40:28 10° NNE daylight
31 Mar - 22:15:49 10° NW 22:18:08 14° N 22:20:24 10° NNE daylight
31 Mar - 23:56:44 10° NNW 23:59:45 18° NNE 00:02:40 10° ENE visible
01 Apr - 01:36:30 10° NW 01:40:39 65° NE 01:44:33 10° ESE visible
01 Apr - 03:18:01 10° W 03:20:22 15° SW 03:22:40 10° SSW visible
01 Apr - 17:13:09 10° S 17:16:17 18° SE 17:19:23 10° E daylight
01 Apr - 18:51:25 10° SW 18:56:09 77° NW 19:00:46 10° NE daylight
01 Apr - 20:33:25 10° WNW 20:36:59 21° NNW 20:40:27 10° NNE daylight
01 Apr - 22:16:18 10° NNW 22:18:34 14° N 22:20:47 10° NNE daylight
01 Apr - 23:56:41 10° NNW 00:00:06 22° NNE 00:03:22 10° ENE visible
02 Apr - 01:36:34 10° NW 01:40:45 81° SW 01:44:40 10° SE visible
02 Apr - 17:12:13 10° S 17:16:12 27° SE 17:20:08 10° ENE daylight
02 Apr - 18:51:38 10° WSW 18:56:17 53° NW 19:00:48 10° NE daylight
02 Apr - 20:34:07 10° WNW 20:37:20 18° NNW 20:40:26 10° NNE daylight
02 Apr - 22:16:34 10° NNW 22:19:00 14° N 22:21:21 10° NE daylight
02 Apr - 23:56:37 10° NW 00:00:23 28° NNE 00:03:58 10° E visible
03 Apr - 01:36:44 10° WNW 01:40:46 50° SW 01:44:34 10° SSE visible
03 Apr - 17:11:41 10° SSW 17:16:07 40° SE 17:20:32 10° ENE daylight
03 Apr - 18:51:59 10° W 18:56:27 39° NNW 19:00:45 10° NE daylight
03 Apr - 20:34:49 10° NW 20:37:41 16° NNW 20:40:28 10° NNE daylight
03 Apr - 22:16:41 10° NNW 22:19:23 15° N 22:22:00 10° NE daylight
03 Apr - 23:56:32 10° NW 00:00:36 38° NNE 00:04:26 10° E visible
04 Apr - 01:37:02 10° WNW 01:40:44 31° SW 01:44:13 10° SSE visible
04 Apr - 17:11:24 10° SW 17:16:06 62° SE 17:20:44 10° ENE daylight
04 Apr - 18:52:28 10° W 18:56:38 30° NNW 19:00:42 10° NE daylight
04 Apr - 20:35:26 10° NW 20:38:03 15° N 20:40:37 10° NNE daylight
04 Apr - 22:16:40 10° NNW 22:19:44 18° NNE 22:22:40 10° ENE daylight
04 Apr - 23:56:29 10° NW 00:00:45 55° NE 00:04:44 10° ESE visible
05 Apr - 01:37:34 10° W 01:40:36 20° SW 01:43:30 10° S visible
05 Apr - 15:33:46 10° SSE 15:36:20 14° SE 15:38:55 10° E daylight
05 Apr - 17:11:19 10° SW 17:16:07 90° NNW 17:20:49 10° NE daylight
05 Apr - 18:53:02 10° WNW 18:56:52 24° NNW 19:00:37 10° NNE daylight
05 Apr - 20:35:55 10° NW 20:38:25 14° N 20:40:52 10° NNE daylight
05 Apr - 22:16:36 10° NNW 22:20:02 21° NNE 22:23:19 10° ENE daylight
05 Apr - 23:56:28 10° NW 00:00:49 84° NE 00:04:53 10° SE visible
06 Apr - 01:38:45 10° WSW 01:40:24 12° SW 01:42:01 10° SSW visible
06 Apr - 15:32:29 10° S 15:36:10 22° SE 15:39:51 10° E daylight
06 Apr - 17:11:25 10° WSW 17:16:09 63° NW 17:20:49 10° NE daylight
06 Apr - 18:53:38 10° WNW 18:57:07 20° NNW 19:00:33 10° NNE daylight
06 Apr - 20:36:13 10° NNW 20:38:47 15° N 20:41:17 10° NE daylight
06 Apr - 22:16:29 10° NW 22:20:17 26° NNE 22:23:54 10° E daylight
06 Apr - 23:56:31 10° WNW 00:00:49 63° SW 00:04:49 10° SE visible
07 Apr - 15:31:45 10° SSW 15:36:01 34° SE 15:40:18 10° ENE daylight
07 Apr - 17:11:39 10° WSW 17:16:13 45° NNW 17:20:45 10° NE daylight
07 Apr - 18:54:16 10° NW 18:57:25 17° NNW 19:00:30 10° NNE daylight
07 Apr - 20:36:22 10° NNW 20:39:08 16° N 20:41:50 10° NE daylight
07 Apr - 22:16:21 10° NW 22:20:28 34° NNE 22:24:21 10° E daylight
